sat.trackr.live / text

‹ back to catalog

STARLINK-32139

NORAD 61510 · 2024-183B

PAYLOAD ACTIVE UNKNOWN

§ Identity

Operator
Country
US
Launch date
2024-10-15
Launch site
AFETR
Launch vehicle
Mass (kg)
RCS (m²)

Purposes: comms

External: N2YO · Heavens-Above · Gunter

§ Orbital elements

Epoch: 2026-05-25T05:24:59.928768Z

Period
94.01 min
Inclination
53.1590°
Eccentricity
0.0001035
Mean motion
15.31705017 rev/d
Perigee alt
470.0 km
Apogee alt
471.4 km
Semi-major
6,848.9 km
B*
2.6187e-5
RAAN
146.7276°
Arg perigee
84.9804°
Mean anomaly
275.1316°
Rev number
9,137

§ Raw data

STARLINK-321391 61510U 24183B   26145.22569362  .00000448  00000+0  26187-4 0  99972 61510  53.1590 146.7276 0001035  84.9804 275.1316 15.31705017 91378

JSON: /api/v1/satellites/61510 · /tle

For live sub-satellite position, see the globe view (requires WebGL).

§ Visibility from observer

Set your observer location to see the next 7 days of passes ≥ 10°. The values pass through the URL so the page stays shareable.

No JS? Fill the form by hand. The geolocation button needs JavaScript.